Regional Weather Roundup
Issued by NWS

Home | Current Version | Previous Version | Text Only | Print | Product List | Glossary On
Versions: 1 2 3 4 5 6 7 8 9 10 11 12 13 14 15 16 17 18 19 20 21 22 23 24 25 26 27 28 29 30 31 32 33 34 35 36 37 38 39 40 41 42 43 44 45 46 47 48 49 50
000
ASUS44 KLIX 040207
RWRLA
LOUISIANA WEATHER ROUNDUP
NATIONAL WEATHER SERVICE NEW ORLEANS LA
900 PM CDT FRI JUL 03 2015

NOTE: "FAIR" INDICATES FEW OR NO CLOUDS BELOW 12,000 FEET WITH NO
      SIGNIFICANT WEATHER AND/OR OBSTRUCTIONS TO VISIBILITY.
      SKY/WX - SKY CONDITION AND SIGNIFICANT WEATHER.
      TMP - AIR TEMPERATURE.    DP   - DEWPOINT TEMPERATURE.
      RH  - RELATIVE HUMIDITY.  PRES - PRESSURE.
      HX  - HEAT INDEX.         WCI  - WIND CHILL INDEX.

*  THESE STATIONS ARE NOT NWS OR FAA STATIONS AND ARE NOT UNDER
   NWS QUALITY CONTROL.

LAZ040-048-061>063-065-066-069-040300-
SOUTHEAST LOUISIANA

CITY           SKY/WX    TMP DP  RH WIND       PRES   REMARKS
N.O. AUDUBON   NOT AVBL
N.O. INTL ARPT MOCLDY    83  72  69 S13       30.00R
N.O. LAKEFRONT PTCLDY    88  72  58 SW14      30.00R
N.O. DOWNTOWN* FAIR      90  72  55 S7        30.01R HX  96
RESERVE*       NOT AVBL
SLIDELL        CLOUDY    86  75  69 SW7       29.98S HX  95
BATON ROUGE    PTCLDY    84  74  71 SW12      29.98S
BOOTHVILLE     MOCLDY    85  76  74 S8        30.02S
BELLE CHASSE   PTCLDY    79  73  82 SW3       30.00S
BOGALUSA*        N/A     85  75  72 S7        29.99S
GALLIANO*      PTCLDY    82  74  78 S5        30.01F
NEW ROADS*     FAIR     N/A N/A N/A S7        29.98R
GONZALES*      FAIR      82  76  82 S6        29.99R
HAMMOND*       PTCLDY    84  73  70 S3        30.00S
HOUMA*         PTCLDY    81  75  81 CALM      30.01R
PORT FOURCHON* CLEAR     84  73  70 SW8       30.02S

$$

LAZ041-044-053-054-040300-
SOUTHWEST LOUISIANA

CITY           SKY/WX    TMP DP  RH WIND       PRES   REMARKS
LAKE CHARLES   MOCLDY    82  75  79 S5        29.97S
LAFAYETTE      MOCLDY    83  75  77 S8        29.99S
PATTERSON      PTCLDY    81  75  83 SW3       30.02S
SALT POINT       N/A     84  75  74 VRB3      29.99S
NEW IBERIA     NOT AVBL
CHENAULT AIRPK CLEAR     82  75  78 S9        29.98S

$$

LAZ027-028-040300-
CENTRAL LOUISIANA

CITY           SKY/WX    TMP DP  RH WIND       PRES   REMARKS
FORT POLK      MOCLDY    83  72  69 S9        29.94F
ALEXANDRIA INT MOCLDY    82  75  79 S9        29.92F
ALEXANDRIA     MOCLDY    84  74  71 SW6       29.94F

$$

LAZ001-002-040300-
NORTHWEST LOUISIANA

CITY           SKY/WX    TMP DP  RH WIND       PRES   REMARKS
SHREVEPORT     CLOUDY    83  75  77 S5        29.91F
BARKSDALE AFB  CLOUDY    84  74  71 S7        29.91F
DTN SHREVEPORT CLOUDY    83  73  72 S6        29.91F

$$

LAZ014-016-040300-
NORTHEAST LOUISIANA

CITY           SKY/WX    TMP DP  RH WIND       PRES   REMARKS
MONROE         MOCLDY    79  76  90 S3        29.93S
TALLULAH       CLOUDY    80  75  84 CALM      29.94R

$$



USA.gov is the U.S. government's official web portal to all federal, state and local government web resources and services.